Location: Beaufort Park
(39.1418°N, 76.9433°W)
Time: 00:13:34
(UTC+00:00)

ATLAS 2AS CENTAUR R/B - Pass Details

Date: 29 October 2020
Orbit: 939 x 1273 km, 63.7° (Epoch: 23 November)

Event Time Altitude Azimuth Distance (km) Brightness Sun altitude
Rises 23:37:46 0° 330° (NNW) 4,148 6.1 -17.6°
Reaches altitude 10° 23:41:11 10° 343° (NNW) 3,133 5.3 -18.3°
Maximum altitude 23:47:19 27° 38° (NE) 2,048 3.8 -19.4°
Enters shadow 23:48:39 25° 55° (NE) 2,088 3.7 -19.7°
